WATER LEVELS

Guaranteed water level and forecast    Ústí nad Labem-Střekov

Guaranteed water level
Nad 275 cm
on 18.05.2021 more information
Forecast
345 cm
on 19.05.2021 07:00
Tendency
Slowly decreasing
on 19.05.2021 metodika tendence
Forecast
(Source data ČHMÚ a Povodí Labe)

Ústí nad Labem

Date and time (UTC) H (cm) Q (m³/s)
19. 5. 2021 03:20 342 517
19. 5. 2021 03:00 342 517
19. 5. 2021 02:00 344 522
19. 5. 2021 01:00 346 527
19. 5. 2021 00:00 348 533
18. 5. 2021 23:00 350 538
18. 5. 2021 22:00 352 543
18. 5. 2021 21:00 357 556
18. 5. 2021 20:00 360 564
18. 5. 2021 19:00 361 567
18. 5. 2021 18:00 362 569
18. 5. 2021 17:00 363 572
18. 5. 2021 16:00 363 572
18. 5. 2021 15:00 365 577

H - water level, Q - discharge
more information

Mělník

Date and time (UTC) H (cm) Q (m³/s)
19. 5. 2021 03:20 319 -
19. 5. 2021 03:00 319 -
19. 5. 2021 02:00 319 -
19. 5. 2021 01:00 320 -
19. 5. 2021 00:00 321 -
18. 5. 2021 23:00 323 -
18. 5. 2021 22:00 321 -
18. 5. 2021 21:00 320 -
18. 5. 2021 20:00 319 -
18. 5. 2021 19:00 319 -
18. 5. 2021 18:00 324 -
18. 5. 2021 17:00 327 -
18. 5. 2021 16:00 327 -
18. 5. 2021 15:00 327 -

H - water level, Q - discharge
more information

Kostelec nad Labem

Date and time (UTC) H (cm) Q (m³/s)
19. 5. 2021 03:20 426 -
19. 5. 2021 03:00 426 -
19. 5. 2021 02:00 425 128
19. 5. 2021 01:00 425 126
19. 5. 2021 00:00 425 125
18. 5. 2021 23:00 425 125
18. 5. 2021 22:00 424 126
18. 5. 2021 21:00 425 124
18. 5. 2021 20:00 425 125
18. 5. 2021 19:00 424 124
18. 5. 2021 18:00 424 123
18. 5. 2021 17:00 423 123
18. 5. 2021 16:00 428 121
18. 5. 2021 15:00 428 132

H - water level, Q - discharge
more information

Přelouč

Date and time (UTC) H (cm) Q (m³/s)
19. 5. 2021 03:20 137 101
19. 5. 2021 03:00 138 102
19. 5. 2021 02:00 138 102
19. 5. 2021 01:00 138 102
19. 5. 2021 00:00 139 104
18. 5. 2021 23:00 139 104
18. 5. 2021 22:00 140 105
18. 5. 2021 21:00 140 105
18. 5. 2021 20:00 140 105
18. 5. 2021 19:00 141 106
18. 5. 2021 18:00 141 106
18. 5. 2021 17:00 142 107
18. 5. 2021 16:00 143 108
18. 5. 2021 15:00 144 109

H - water level, Q - discharge
more information

Praha-Chuchle

Date and time (UTC) H (cm) Q (m³/s)
19. 5. 2021 03:20 105 319
19. 5. 2021 03:00 105 319
19. 5. 2021 02:00 105 319
19. 5. 2021 01:00 105 319
19. 5. 2021 00:00 105 319
18. 5. 2021 23:00 105 319
18. 5. 2021 22:00 105 319
18. 5. 2021 21:00 106 324
18. 5. 2021 20:00 105 319
18. 5. 2021 19:00 105 319
18. 5. 2021 18:00 106 324
18. 5. 2021 17:00 106 324
18. 5. 2021 16:00 106 324
18. 5. 2021 15:00 106 324

H - water level, Q - discharge
more information

České Budějovice

Date and time (UTC) H (cm) Q (m³/s)
19. 5. 2021 03:20 118 44.6
19. 5. 2021 03:00 117 43
19. 5. 2021 02:00 119 45
19. 5. 2021 01:00 116 42
19. 5. 2021 00:00 117 42
18. 5. 2021 23:00 117 42
18. 5. 2021 22:00 118 43
18. 5. 2021 21:00 117 43
18. 5. 2021 20:00 117 42
18. 5. 2021 19:00 116 43
18. 5. 2021 18:00 117 48
18. 5. 2021 17:00 130 55
18. 5. 2021 16:00 98 16
18. 5. 2021 15:00 117 43

H - water level, Q - discharge
more information
Source data
Labe Basin Vltava Basin Povodí Moravy ČHMÚ